Tracking 18785 objects as of 21-July-2017
HD Live streaming from Space Station
objects crossing your sky now
MAYAK may become the brightest orbital object in the night sky!
Where is MAYAK now?
How to spot MAYAK

IRIDIUM 128

Track IRIDIUM 128 now!
10-day predictions
IRIDIUM 128 is classified as:


NORAD ID: 42811
Int'l Code: 2017-039J
Perigee: 778.4 km
Apogee: 783.3 km
Inclination: 87.5 °
Period: 100.3 minutes
Semi major axis: 7151 km
RCS: Unknown
Launch date: June 25, 2017
Source: United States (US)
Launch site: AIR FORCE WESTERN TEST RANGE (AFWTR)
Your satellite tracking list
Your tracking list is empty





NASA's NSSDC Master Catalog

Two Line Element Set (TLE):
1 42811U 17039J   17201.34179905 +.00000055 +00000-0 +12819-4 0  9990
2 42811 087.4979 274.5103 0003424 114.7634 245.3921 14.35393556003589
Source of the keplerian elements: AFSPC